owner,sensor,date,latitude,longitude,vertical_datum,sea_water_practical_salinity,qcFlag 
DISL,ioos:station:DISL:MHPA:1,2009-12-01T00:00:00Z,30.6671,-87.9365,4.158,0.07,1111122 
DISL,ioos:station:DISL:MHPA:1,2009-12-01T00:30:00Z,30.6671,-87.9365,4.015,0.07,1111122 
DISL,ioos:station:DISL:MHPA:1,2009-12-01T01:00:00Z,30.6671,-87.9365,3.888,0.07,1111122 
DISL,ioos:station:DISL:MHPA:1,2009-12-01T01:30:00Z,30.6671,-87.9365,3.786,0.06,1111122 
DISL,ioos:station:DISL:MHPA:1,2009-12-01T02:00:00Z,30.6671,-87.9365,3.617,0.06,1111122 
DISL,ioos:station:DISL:MHPA:1,2009-12-01T02:30:00Z,30.6671,-87.9365,3.554,0.06,1111122 
DISL,ioos:station:DISL:MHPA:1,2009-12-01T03:00:00Z,30.6671,-87.9365,3.558,0.06,1111122 
DISL,ioos:station:DISL:MHPA:1,2009-12-01T03:30:00Z,30.6671,-87.9365,3.43,0.06,1111122 
DISL,ioos:station:DISL:MHPA:1,2009-12-01T04:00:00Z,30.6671,-87.9365,3.424,0.06,1111122 
DISL,ioos:station:DISL:MHPA:1,2009-12-01T04:30:00Z,30.6671,-87.9365,3.391,0.06,1111122 
DISL,ioos:station:DISL:MHPA:1,2009-12-01T05:00:00Z,30.6671,-87.9365,3.355,0.06,1111122 
DISL,ioos:station:DISL:MHPA:1,2009-12-01T05:30:00Z,30.6671,-87.9365,3.388,0.06,1111122 
DISL,ioos:station:DISL:MHPA:1,2009-12-01T06:00:00Z,30.6671,-87.9365,3.363,0.06,1111122 
DISL,ioos:station:DISL:MHPA:1,2009-12-01T06:30:00Z,30.6671,-87.9365,3.283,0.06,1111122 
DISL,ioos:station:DISL:MHPA:1,2009-12-01T07:00:00Z,30.6671,-87.9365,3.325,0.06,1111122 
DISL,ioos:station:DISL:MHPA:1,2009-12-01T07:30:00Z,30.6671,-87.9365,3.364,0.06,1111122 
DISL,ioos:station:DISL:MHPA:1,2009-12-01T08:00:00Z,30.6671,-87.9365,3.277,0.06,1111122 
DISL,ioos:station:DISL:MHPA:1,2009-12-01T08:30:00Z,30.6671,-87.9365,3.182,0.06,1111122 
DISL,ioos:station:DISL:MHPA:1,2009-12-01T09:00:00Z,30.6671,-87.9365,3.067,0.06,1111122 
DISL,ioos:station:DISL:MHPA:1,2009-12-01T09:30:00Z,30.6671,-87.9365,2.876,0.06,1111122 
DISL,ioos:station:DISL:MHPA:1,2009-12-01T10:00:00Z,30.6671,-87.9365,2.713,0.06,1111122 
DISL,ioos:station:DISL:MHPA:1,2009-12-01T10:30:00Z,30.6671,-87.9365,2.643,0.06,1111122 
DISL,ioos:station:DISL:MHPA:1,2009-12-01T11:00:00Z,30.6671,-87.9365,2.537,0.06,1111122 
DISL,ioos:station:DISL:MHPA:1,2009-12-01T11:30:00Z,30.6671,-87.9365,2.4,0.06,1111122 
DISL,ioos:station:DISL:MHPA:1,2009-12-01T12:00:00Z,30.6671,-87.9365,2.288,0.06,1111122 
DISL,ioos:station:DISL:MHPA:1,2009-12-01T12:30:00Z,30.6671,-87.9365,2.272,0.06,1111122 
DISL,ioos:station:DISL:MHPA:1,2009-12-01T13:00:00Z,30.6671,-87.9365,2.28,0.07,1111122 
DISL,ioos:station:DISL:MHPA:1,2009-12-01T13:30:00Z,30.6671,-87.9365,2.268,0.07,1111122 
DISL,ioos:station:DISL:MHPA:1,2009-12-01T14:00:00Z,30.6671,-87.9365,2.232,0.07,1111122 
DISL,ioos:station:DISL:MHPA:1,2009-12-01T14:30:00Z,30.6671,-87.9365,2.207,0.07,1111122 
DISL,ioos:station:DISL:MHPA:1,2009-12-01T15:00:00Z,30.6671,-87.9365,2.193,0.07,1111122 
DISL,ioos:station:DISL:MHPA:1,2009-12-01T15:30:00Z,30.6671,-87.9365,2.251,0.07,1111122 
DISL,ioos:station:DISL:MHPA:1,2009-12-01T16:00:00Z,30.6671,-87.9365,2.352,0.07,1111122 
DISL,ioos:station:DISL:MHPA:1,2009-12-01T16:30:00Z,30.6671,-87.9365,2.406,0.07,1111122 
DISL,ioos:station:DISL:MHPA:1,2009-12-01T17:00:00Z,30.6671,-87.9365,2.469,0.07,1111122 
DISL,ioos:station:DISL:MHPA:1,2009-12-01T17:30:00Z,30.6671,-87.9365,2.694,0.07,1111122 
DISL,ioos:station:DISL:MHPA:1,2009-12-01T18:00:00Z,30.6671,-87.9365,2.9,0.07,1111122 
DISL,ioos:station:DISL:MHPA:1,2009-12-01T18:30:00Z,30.6671,-87.9365,2.98,0.07,1111122 
DISL,ioos:station:DISL:MHPA:1,2009-12-01T19:00:00Z,30.6671,-87.9365,3.079,0.07,1111122 
DISL,ioos:station:DISL:MHPA:1,2009-12-01T19:30:00Z,30.6671,-87.9365,3.31,0.07,1111122 
DISL,ioos:station:DISL:MHPA:1,2009-12-01T20:00:00Z,30.6671,-87.9365,3.508,0.07,1111122 
DISL,ioos:station:DISL:MHPA:1,2009-12-01T20:30:00Z,30.6671,-87.9365,3.573,0.07,1111122 
DISL,ioos:station:DISL:MHPA:1,2009-12-01T21:00:00Z,30.6671,-87.9365,3.675,0.07,1111122 
DISL,ioos:station:DISL:MHPA:1,2009-12-01T21:30:00Z,30.6671,-87.9365,3.701,0.07,1111122 
DISL,ioos:station:DISL:MHPA:1,2009-12-01T22:00:00Z,30.6671,-87.9365,3.741,0.07,1111122 
DISL,ioos:station:DISL:MHPA:1,2009-12-01T22:30:00Z,30.6671,-87.9365,3.82,0.07,1111122 
DISL,ioos:station:DISL:MHPA:1,2009-12-01T23:00:00Z,30.6671,-87.9365,3.882,0.07,1111122 
DISL,ioos:station:DISL:MHPA:1,2009-12-01T23:30:00Z,30.6671,-87.9365,4.048,0.07,1111122 
DISL,ioos:station:DISL:MHPA:1,2009-12-02T00:00:00Z,30.6671,-87.9365,4.211,0.07,1111122 
DISL,ioos:station:DISL:MHPA:1,2009-12-02T00:30:00Z,30.6671,-87.9365,4.368,0.07,1111122 
DISL,ioos:station:DISL:MHPA:1,2009-12-02T01:00:00Z,30.6671,-87.9365,4.497,0.07,1111122 
DISL,ioos:station:DISL:MHPA:1,2009-12-02T01:30:00Z,30.6671,-87.9365,4.535,0.07,1111122 
DISL,ioos:station:DISL:MHPA:1,2009-12-02T02:00:00Z,30.6671,-87.9365,4.713,0.07,1111122 
DISL,ioos:station:DISL:MHPA:1,2009-12-02T02:30:00Z,30.6671,-87.9365,4.89,0.07,1111122 
DISL,ioos:station:DISL:MHPA:1,2009-12-02T03:00:00Z,30.6671,-87.9365,5.055,0.07,1111122 
DISL,ioos:station:DISL:MHPA:1,2009-12-02T03:30:00Z,30.6671,-87.9365,5.526,0.07,1111122 
DISL,ioos:station:DISL:MHPA:1,2009-12-02T04:00:00Z,30.6671,-87.9365,5.584,0.07,1111122 
DISL,ioos:station:DISL:MHPA:1,2009-12-02T04:30:00Z,30.6671,-87.9365,5.839,0.07,1111122 
DISL,ioos:station:DISL:MHPA:1,2009-12-02T05:00:00Z,30.6671,-87.9365,6.962,0.07,1111122 
DISL,ioos:station:DISL:MHPA:1,2009-12-02T05:30:00Z,30.6671,-87.9365,6.338,0.07,1111122 
DISL,ioos:station:DISL:MHPA:1,2009-12-02T06:00:00Z,30.6671,-87.9365,6.258,0.07,1111122 
DISL,ioos:station:DISL:MHPA:1,2009-12-02T06:30:00Z,30.6671,-87.9365,6.338,0.07,1111122 
DISL,ioos:station:DISL:MHPA:1,2009-12-02T07:00:00Z,30.6671,-87.9365,6.219,0.07,1111122 
DISL,ioos:station:DISL:MHPA:1,2009-12-02T07:30:00Z,30.6671,-87.9365,5.666,0.07,1111122 
DISL,ioos:station:DISL:MHPA:1,2009-12-02T08:00:00Z,30.6671,-87.9365,5.573,0.07,1111122 
DISL,ioos:station:DISL:MHPA:1,2009-12-02T08:30:00Z,30.6671,-87.9365,5.511,0.07,1111122 
DISL,ioos:station:DISL:MHPA:1,2009-12-02T09:00:00Z,30.6671,-87.9365,5.399,0.07,1111122 
DISL,ioos:station:DISL:MHPA:1,2009-12-02T09:30:00Z,30.6671,-87.9365,5.228,0.07,1111122 
DISL,ioos:station:DISL:MHPA:1,2009-12-02T10:00:00Z,30.6671,-87.9365,5.116,0.09,1111122 
DISL,ioos:station:DISL:MHPA:1,2009-12-02T10:30:00Z,30.6671,-87.9365,4.958,0.08,1111122 
DISL,ioos:station:DISL:MHPA:1,2009-12-02T11:00:00Z,30.6671,-87.9365,5.166,0.3,1111122 
DISL,ioos:station:DISL:MHPA:1,2009-12-02T11:30:00Z,30.6671,-87.9365,4.939,0.22,1111122 
DISL,ioos:station:DISL:MHPA:1,2009-12-02T12:00:00Z,30.6671,-87.9365,4.782,0.1,1111122 
DISL,ioos:station:DISL:MHPA:1,2009-12-02T12:30:00Z,30.6671,-87.9365,4.823,0.1,1111122 
DISL,ioos:station:DISL:MHPA:1,2009-12-02T13:00:00Z,30.6671,-87.9365,4.395,1.12,1111122 
DISL,ioos:station:DISL:MHPA:1,2009-12-02T13:30:00Z,30.6671,-87.9365,4.498,1.16,1111122 
DISL,ioos:station:DISL:MHPA:1,2009-12-02T14:00:00Z,30.6671,-87.9365,4.585,0.71,1111122 
DISL,ioos:station:DISL:MHPA:1,2009-12-02T14:30:00Z,30.6671,-87.9365,4.23,0.51,1111122 
DISL,ioos:station:DISL:MHPA:1,2009-12-02T15:00:00Z,30.6671,-87.9365,4.26,0.28,1111122 
DISL,ioos:station:DISL:MHPA:1,2009-12-02T15:30:00Z,30.6671,-87.9365,4.369,0.12,1111122 
DISL,ioos:station:DISL:MHPA:1,2009-12-02T16:00:00Z,30.6671,-87.9365,4.4,0.12,1111122 
DISL,ioos:station:DISL:MHPA:1,2009-12-02T16:30:00Z,30.6671,-87.9365,4.484,0.15,1111122 
DISL,ioos:station:DISL:MHPA:1,2009-12-02T17:00:00Z,30.6671,-87.9365,4.648,0.16,1111122 
DISL,ioos:station:DISL:MHPA:1,2009-12-02T17:30:00Z,30.6671,-87.9365,4.735,0.22,1111122 
DISL,ioos:station:DISL:MHPA:1,2009-12-02T18:00:00Z,30.6671,-87.9365,4.825,0.27,1111122 
DISL,ioos:station:DISL:MHPA:1,2009-12-02T18:30:00Z,30.6671,-87.9365,5.03,0.37,1111122 
DISL,ioos:station:DISL:MHPA:1,2009-12-02T19:00:00Z,30.6671,-87.9365,4.926,0.68,1111122 
DISL,ioos:station:DISL:MHPA:1,2009-12-02T19:30:00Z,30.6671,-87.9365,4.997,0.7,1111122 
DISL,ioos:station:DISL:MHPA:1,2009-12-02T20:00:00Z,30.6671,-87.9365,5.096,0.81,1111122 
DISL,ioos:station:DISL:MHPA:1,2009-12-02T20:30:00Z,30.6671,-87.9365,5.015,0.85,1111122 
DISL,ioos:station:DISL:MHPA:1,2009-12-02T21:00:00Z,30.6671,-87.9365,4.982,0.77,1111122 
DISL,ioos:station:DISL:MHPA:1,2009-12-02T21:30:00Z,30.6671,-87.9365,4.838,0.49,1111122 
DISL,ioos:station:DISL:MHPA:1,2009-12-02T22:00:00Z,30.6671,-87.9365,4.946,0.62,1111122 
DISL,ioos:station:DISL:MHPA:1,2009-12-02T22:30:00Z,30.6671,-87.9365,4.977,0.56,1111122 
DISL,ioos:station:DISL:MHPA:1,2009-12-02T23:00:00Z,30.6671,-87.9365,5.214,0.63,1111122 
DISL,ioos:station:DISL:MHPA:1,2009-12-02T23:30:00Z,30.6671,-87.9365,5.051,0.68,1111122 
DISL,ioos:station:DISL:MHPA:1,2009-12-03T00:00:00Z,30.6671,-87.9365,5.243,0.83,1111122 
DISL,ioos:station:DISL:MHPA:1,2009-12-03T00:30:00Z,30.6671,-87.9365,5.534,0.7,1111122 
DISL,ioos:station:DISL:MHPA:1,2009-12-03T01:00:00Z,30.6671,-87.9365,5.428,0.7,1111122 
DISL,ioos:station:DISL:MHPA:1,2009-12-03T01:30:00Z,30.6671,-87.9365,5.63,0.64,1111122 
DISL,ioos:station:DISL:MHPA:1,2009-12-03T02:00:00Z,30.6671,-87.9365,5.837,0.89,1111122 
DISL,ioos:station:DISL:MHPA:1,2009-12-03T02:30:00Z,30.6671,-87.9365,5.929,0.83,1111122 
DISL,ioos:station:DISL:MHPA:1,2009-12-03T03:00:00Z,30.6671,-87.9365,5.84,0.95,1111122 
DISL,ioos:station:DISL:MHPA:1,2009-12-03T03:30:00Z,30.6671,-87.9365,5.792,1.0,1111122 
DISL,ioos:station:DISL:MHPA:1,2009-12-03T04:00:00Z,30.6671,-87.9365,5.587,0.89,1111122 
DISL,ioos:station:DISL:MHPA:1,2009-12-03T04:30:00Z,30.6671,-87.9365,5.524,0.76,1111122 
DISL,ioos:station:DISL:MHPA:1,2009-12-03T05:00:00Z,30.6671,-87.9365,5.344,0.69,1111122 
DISL,ioos:station:DISL:MHPA:1,2009-12-03T05:30:00Z,30.6671,-87.9365,5.317,0.87,1111122 
DISL,ioos:station:DISL:MHPA:1,2009-12-03T06:00:00Z,30.6671,-87.9365,5.222,0.92,1111122 
DISL,ioos:station:DISL:MHPA:1,2009-12-03T06:30:00Z,30.6671,-87.9365,5.094,0.96,1111122 
DISL,ioos:station:DISL:MHPA:1,2009-12-03T07:00:00Z,30.6671,-87.9365,5.056,0.91,1111122 
DISL,ioos:station:DISL:MHPA:1,2009-12-03T07:30:00Z,30.6671,-87.9365,4.921,0.78,1111122 
DISL,ioos:station:DISL:MHPA:1,2009-12-03T08:00:00Z,30.6671,-87.9365,4.696,0.79,1111122 
DISL,ioos:station:DISL:MHPA:1,2009-12-03T08:30:00Z,30.6671,-87.9365,4.518,0.82,1111122 
DISL,ioos:station:DISL:MHPA:1,2009-12-03T09:00:00Z,30.6671,-87.9365,4.423,0.79,1111122 
DISL,ioos:station:DISL:MHPA:1,2009-12-03T09:30:00Z,30.6671,-87.9365,4.254,0.8,1111122 
DISL,ioos:station:DISL:MHPA:1,2009-12-03T10:00:00Z,30.6671,-87.9365,4.128,0.72,1111122 
DISL,ioos:station:DISL:MHPA:1,2009-12-03T10:30:00Z,30.6671,-87.9365,3.961,0.69,1111122 
DISL,ioos:station:DISL:MHPA:1,2009-12-03T11:00:00Z,30.6671,-87.9365,3.836,0.69,1111122 
DISL,ioos:station:DISL:MHPA:1,2009-12-03T11:30:00Z,30.6671,-87.9365,3.667,0.71,1111122 
DISL,ioos:station:DISL:MHPA:1,2009-12-03T12:00:00Z,30.6671,-87.9365,3.513,0.53,1111122 
DISL,ioos:station:DISL:MHPA:1,2009-12-03T12:30:00Z,30.6671,-87.9365,3.386,0.48,1111122 
DISL,ioos:station:DISL:MHPA:1,2009-12-03T13:00:00Z,30.6671,-87.9365,3.271,0.5,1111122 
DISL,ioos:station:DISL:MHPA:1,2009-12-03T13:30:00Z,30.6671,-87.9365,3.133,0.56,1111122 
DISL,ioos:station:DISL:MHPA:1,2009-12-03T14:00:00Z,30.6671,-87.9365,3.001,0.6,1111122 
DISL,ioos:station:DISL:MHPA:1,2009-12-03T14:30:00Z,30.6671,-87.9365,2.877,0.59,1111122 
DISL,ioos:station:DISL:MHPA:1,2009-12-03T15:00:00Z,30.6671,-87.9365,2.782,0.56,1111122 
DISL,ioos:station:DISL:MHPA:1,2009-12-03T15:30:00Z,30.6671,-87.9365,2.673,0.56,1111122 
DISL,ioos:station:DISL:MHPA:1,2009-12-03T16:00:00Z,30.6671,-87.9365,2.578,0.53,1111122 
DISL,ioos:station:DISL:MHPA:1,2009-12-03T16:30:00Z,30.6671,-87.9365,2.505,0.52,1111122 
DISL,ioos:station:DISL:MHPA:1,2009-12-03T17:00:00Z,30.6671,-87.9365,2.461,0.58,1111122 
DISL,ioos:station:DISL:MHPA:1,2009-12-03T17:30:00Z,30.6671,-87.9365,2.439,0.52,1111122 
DISL,ioos:station:DISL:MHPA:1,2009-12-03T18:00:00Z,30.6671,-87.9365,2.42,0.51,1111122 
DISL,ioos:station:DISL:MHPA:1,2009-12-03T18:30:00Z,30.6671,-87.9365,2.394,0.51,1111122 
DISL,ioos:station:DISL:MHPA:1,2009-12-03T19:00:00Z,30.6671,-87.9365,2.432,0.52,1111122 
DISL,ioos:station:DISL:MHPA:1,2009-12-03T19:30:00Z,30.6671,-87.9365,2.439,0.51,1111122 
DISL,ioos:station:DISL:MHPA:1,2009-12-03T20:00:00Z,30.6671,-87.9365,2.476,0.49,1111122 
DISL,ioos:station:DISL:MHPA:1,2009-12-03T20:30:00Z,30.6671,-87.9365,2.685,0.41,1111122 
DISL,ioos:station:DISL:MHPA:1,2009-12-03T21:00:00Z,30.6671,-87.9365,2.891,0.45,1111122 
DISL,ioos:station:DISL:MHPA:1,2009-12-03T21:30:00Z,30.6671,-87.9365,3.014,0.5,1111122 
DISL,ioos:station:DISL:MHPA:1,2009-12-03T22:00:00Z,30.6671,-87.9365,3.121,0.53,1111122 
DISL,ioos:station:DISL:MHPA:1,2009-12-03T22:30:00Z,30.6671,-87.9365,3.249,0.58,1111122 
DISL,ioos:station:DISL:MHPA:1,2009-12-03T23:00:00Z,30.6671,-87.9365,3.438,0.54,1111122 
DISL,ioos:station:DISL:MHPA:1,2009-12-03T23:30:00Z,30.6671,-87.9365,3.604,0.48,1111122 
DISL,ioos:station:DISL:MHPA:1,2009-12-04T00:00:00Z,30.6671,-87.9365,3.702,0.39,1111122 
DISL,ioos:station:DISL:MHPA:1,2009-12-04T00:30:00Z,30.6671,-87.9365,3.863,0.39,1111122 
DISL,ioos:station:DISL:MHPA:1,2009-12-04T01:00:00Z,30.6671,-87.9365,3.918,0.5,1111122 
DISL,ioos:station:DISL:MHPA:1,2009-12-04T01:30:00Z,30.6671,-87.9365,3.986,0.33,1111122 
DISL,ioos:station:DISL:MHPA:1,2009-12-04T02:00:00Z,30.6671,-87.9365,4.098,0.34,1111122 
DISL,ioos:station:DISL:MHPA:1,2009-12-04T02:30:00Z,30.6671,-87.9365,4.297,0.53,1111122 
DISL,ioos:station:DISL:MHPA:1,2009-12-04T03:00:00Z,30.6671,-87.9365,4.393,0.5,1111122 
DISL,ioos:station:DISL:MHPA:1,2009-12-04T03:30:00Z,30.6671,-87.9365,4.507,0.48,1111122 
DISL,ioos:station:DISL:MHPA:1,2009-12-04T04:00:00Z,30.6671,-87.9365,4.596,0.46,1111122 
DISL,ioos:station:DISL:MHPA:1,2009-12-04T04:30:00Z,30.6671,-87.9365,4.663,0.49,1111122 
DISL,ioos:station:DISL:MHPA:1,2009-12-04T05:00:00Z,30.6671,-87.9365,4.771,0.42,1111122 
DISL,ioos:station:DISL:MHPA:1,2009-12-04T05:30:00Z,30.6671,-87.9365,4.774,0.45,1111122 
DISL,ioos:station:DISL:MHPA:1,2009-12-04T06:00:00Z,30.6671,-87.9365,4.724,0.45,1111122 
DISL,ioos:station:DISL:MHPA:1,2009-12-04T06:30:00Z,30.6671,-87.9365,4.678,0.44,1111122 
DISL,ioos:station:DISL:MHPA:1,2009-12-04T07:00:00Z,30.6671,-87.9365,4.681,0.4,1111122 
DISL,ioos:station:DISL:MHPA:1,2009-12-04T07:30:00Z,30.6671,-87.9365,4.592,0.35,1111122 
DISL,ioos:station:DISL:MHPA:1,2009-12-04T08:00:00Z,30.6671,-87.9365,4.489,0.37,1111122 
DISL,ioos:station:DISL:MHPA:1,2009-12-04T08:30:00Z,30.6671,-87.9365,4.406,0.38,1111122 
DISL,ioos:station:DISL:MHPA:1,2009-12-04T09:00:00Z,30.6671,-87.9365,4.247,0.37,1111122 
DISL,ioos:station:DISL:MHPA:1,2009-12-04T09:30:00Z,30.6671,-87.9365,4.05,0.24,1111122 
DISL,ioos:station:DISL:MHPA:1,2009-12-04T10:00:00Z,30.6671,-87.9365,3.876,0.36,1111122 
DISL,ioos:station:DISL:MHPA:1,2009-12-04T10:30:00Z,30.6671,-87.9365,3.751,0.39,1111122 
DISL,ioos:station:DISL:MHPA:1,2009-12-04T11:00:00Z,30.6671,-87.9365,3.636,0.38,1111122 
DISL,ioos:station:DISL:MHPA:1,2009-12-04T11:30:00Z,30.6671,-87.9365,3.486,0.3,1111122 
DISL,ioos:station:DISL:MHPA:1,2009-12-04T12:00:00Z,30.6671,-87.9365,3.324,0.25,1111122 
DISL,ioos:station:DISL:MHPA:1,2009-12-04T12:30:00Z,30.6671,-87.9365,3.15,0.26,1111122 
DISL,ioos:station:DISL:MHPA:1,2009-12-04T13:00:00Z,30.6671,-87.9365,2.988,0.29,1111122 
DISL,ioos:station:DISL:MHPA:1,2009-12-04T13:30:00Z,30.6671,-87.9365,2.844,0.34,1111122 
DISL,ioos:station:DISL:MHPA:1,2009-12-04T14:00:00Z,30.6671,-87.9365,2.719,0.27,1111122 
DISL,ioos:station:DISL:MHPA:1,2009-12-04T14:30:00Z,30.6671,-87.9365,2.595,0.27,1111122 
DISL,ioos:station:DISL:MHPA:1,2009-12-04T15:00:00Z,30.6671,-87.9365,2.488,0.23,1111122 
DISL,ioos:station:DISL:MHPA:1,2009-12-04T15:30:00Z,30.6671,-87.9365,2.414,0.32,1111122 
DISL,ioos:station:DISL:MHPA:1,2009-12-04T16:00:00Z,30.6671,-87.9365,2.364,0.29,1111122 
DISL,ioos:station:DISL:MHPA:1,2009-12-04T16:30:00Z,30.6671,-87.9365,2.306,0.28,1111122 
DISL,ioos:station:DISL:MHPA:1,2009-12-04T17:00:00Z,30.6671,-87.9365,2.253,0.28,1111122 
DISL,ioos:station:DISL:MHPA:1,2009-12-04T17:30:00Z,30.6671,-87.9365,2.212,0.32,1111122 
DISL,ioos:station:DISL:MHPA:1,2009-12-04T18:00:00Z,30.6671,-87.9365,2.254,0.28,1111122 
DISL,ioos:station:DISL:MHPA:1,2009-12-04T18:30:00Z,30.6671,-87.9365,2.208,0.26,1111122 
DISL,ioos:station:DISL:MHPA:1,2009-12-04T19:00:00Z,30.6671,-87.9365,2.136,0.29,1111122 
DISL,ioos:station:DISL:MHPA:1,2009-12-04T19:30:00Z,30.6671,-87.9365,2.123,0.28,1111122 
DISL,ioos:station:DISL:MHPA:1,2009-12-04T20:00:00Z,30.6671,-87.9365,2.131,0.28,1111122 
DISL,ioos:station:DISL:MHPA:1,2009-12-04T20:30:00Z,30.6671,-87.9365,2.125,0.32,1111122 
DISL,ioos:station:DISL:MHPA:1,2009-12-04T21:00:00Z,30.6671,-87.9365,2.171,0.29,1111122 
DISL,ioos:station:DISL:MHPA:1,2009-12-04T21:30:00Z,30.6671,-87.9365,2.261,0.27,1111122 
DISL,ioos:station:DISL:MHPA:1,2009-12-04T22:00:00Z,30.6671,-87.9365,2.408,0.26,1111122 
DISL,ioos:station:DISL:MHPA:1,2009-12-04T22:30:00Z,30.6671,-87.9365,2.638,0.26,1111122 
DISL,ioos:station:DISL:MHPA:1,2009-12-04T23:00:00Z,30.6671,-87.9365,2.893,0.27,1111122 
DISL,ioos:station:DISL:MHPA:1,2009-12-04T23:30:00Z,30.6671,-87.9365,3.042,0.27,1111122 
DISL,ioos:station:DISL:MHPA:1,2009-12-05T00:00:00Z,30.6671,-87.9365,3.18,0.26,1111122 
DISL,ioos:station:DISL:MHPA:1,2009-12-05T00:30:00Z,30.6671,-87.9365,3.293,0.25,1111122 
DISL,ioos:station:DISL:MHPA:1,2009-12-05T01:00:00Z,30.6671,-87.9365,3.317,0.26,1111122 
DISL,ioos:station:DISL:MHPA:1,2009-12-05T01:30:00Z,30.6671,-87.9365,3.402,0.28,1111122 
DISL,ioos:station:DISL:MHPA:1,2009-12-05T02:00:00Z,30.6671,-87.9365,3.529,0.27,1111122 
DISL,ioos:station:DISL:MHPA:1,2009-12-05T02:30:00Z,30.6671,-87.9365,3.491,0.25,1111122 
DISL,ioos:station:DISL:MHPA:1,2009-12-05T03:00:00Z,30.6671,-87.9365,3.404,0.21,1111122 
DISL,ioos:station:DISL:MHPA:1,2009-12-05T03:30:00Z,30.6671,-87.9365,3.382,0.18,1111122 
DISL,ioos:station:DISL:MHPA:1,2009-12-05T04:00:00Z,30.6671,-87.9365,3.407,0.17,1111122 
DISL,ioos:station:DISL:MHPA:1,2009-12-05T04:30:00Z,30.6671,-87.9365,3.599,0.15,1111122 
DISL,ioos:station:DISL:MHPA:1,2009-12-05T05:00:00Z,30.6671,-87.9365,3.811,0.13,1111122 
DISL,ioos:station:DISL:MHPA:1,2009-12-05T05:30:00Z,30.6671,-87.9365,4.002,0.16,1111122 
DISL,ioos:station:DISL:MHPA:1,2009-12-05T06:00:00Z,30.6671,-87.9365,4.058,0.18,1111122 
DISL,ioos:station:DISL:MHPA:1,2009-12-05T06:30:00Z,30.6671,-87.9365,4.101,0.19,1111122 
DISL,ioos:station:DISL:MHPA:1,2009-12-05T07:00:00Z,30.6671,-87.9365,4.062,0.18,1111122 
DISL,ioos:station:DISL:MHPA:1,2009-12-05T07:30:00Z,30.6671,-87.9365,3.984,0.19,1111122 
DISL,ioos:station:DISL:MHPA:1,2009-12-05T08:00:00Z,30.6671,-87.9365,3.884,0.21,1111122 
DISL,ioos:station:DISL:MHPA:1,2009-12-05T08:30:00Z,30.6671,-87.9365,3.729,0.18,1111122 
DISL,ioos:station:DISL:MHPA:1,2009-12-05T09:00:00Z,30.6671,-87.9365,3.592,0.12,1111122 
DISL,ioos:station:DISL:MHPA:1,2009-12-05T09:30:00Z,30.6671,-87.9365,3.482,0.13,1111122 
DISL,ioos:station:DISL:MHPA:1,2009-12-05T10:00:00Z,30.6671,-87.9365,3.3,0.13,1111122 
DISL,ioos:station:DISL:MHPA:1,2009-12-05T10:30:00Z,30.6671,-87.9365,3.209,0.13,1111122 
DISL,ioos:station:DISL:MHPA:1,2009-12-05T11:00:00Z,30.6671,-87.9365,3.123,0.14,1111122 
DISL,ioos:station:DISL:MHPA:1,2009-12-05T11:30:00Z,30.6671,-87.9365,3.068,0.15,1111122 
DISL,ioos:station:DISL:MHPA:1,2009-12-05T12:00:00Z,30.6671,-87.9365,3.0,0.15,1111122 
DISL,ioos:station:DISL:MHPA:1,2009-12-05T12:30:00Z,30.6671,-87.9365,2.911,0.16,1111122 
DISL,ioos:station:DISL:MHPA:1,2009-12-05T13:00:00Z,30.6671,-87.9365,2.802,0.17,1111122 
DISL,ioos:station:DISL:MHPA:1,2009-12-05T13:30:00Z,30.6671,-87.9365,2.679,0.18,1111122 
DISL,ioos:station:DISL:MHPA:1,2009-12-05T14:00:00Z,30.6671,-87.9365,2.536,0.18,1111122 
DISL,ioos:station:DISL:MHPA:1,2009-12-05T14:30:00Z,30.6671,-87.9365,2.432,0.17,1111122 
DISL,ioos:station:DISL:MHPA:1,2009-12-05T15:00:00Z,30.6671,-87.9365,2.342,0.18,1111122 
DISL,ioos:station:DISL:MHPA:1,2009-12-05T15:30:00Z,30.6671,-87.9365,2.248,0.18,1111122 
DISL,ioos:station:DISL:MHPA:1,2009-12-05T16:00:00Z,30.6671,-87.9365,2.149,0.17,1111122 
DISL,ioos:station:DISL:MHPA:1,2009-12-05T16:30:00Z,30.6671,-87.9365,2.069,0.14,1111122 
DISL,ioos:station:DISL:MHPA:1,2009-12-05T17:00:00Z,30.6671,-87.9365,2.02,0.15,1111122 
DISL,ioos:station:DISL:MHPA:1,2009-12-05T17:30:00Z,30.6671,-87.9365,1.961,0.17,1111122 
DISL,ioos:station:DISL:MHPA:1,2009-12-05T18:00:00Z,30.6671,-87.9365,1.915,0.17,1111122 
DISL,ioos:station:DISL:MHPA:1,2009-12-05T18:30:00Z,30.6671,-87.9365,1.879,0.16,1111122 
DISL,ioos:station:DISL:MHPA:1,2009-12-05T19:00:00Z,30.6671,-87.9365,1.853,0.16,1111122 
DISL,ioos:station:DISL:MHPA:1,2009-12-05T19:30:00Z,30.6671,-87.9365,1.844,0.17,1111122 
DISL,ioos:station:DISL:MHPA:1,2009-12-05T20:00:00Z,30.6671,-87.9365,1.852,0.16,1111122 
DISL,ioos:station:DISL:MHPA:1,2009-12-05T20:30:00Z,30.6671,-87.9365,1.853,0.14,1111122 
DISL,ioos:station:DISL:MHPA:1,2009-12-05T21:00:00Z,30.6671,-87.9365,1.883,0.14,1111122 
DISL,ioos:station:DISL:MHPA:1,2009-12-05T21:30:00Z,30.6671,-87.9365,1.962,0.14,1111122 
DISL,ioos:station:DISL:MHPA:1,2009-12-05T22:00:00Z,30.6671,-87.9365,2.093,0.14,1111122 
DISL,ioos:station:DISL:MHPA:1,2009-12-05T22:30:00Z,30.6671,-87.9365,2.245,0.14,1111122 
DISL,ioos:station:DISL:MHPA:1,2009-12-05T23:00:00Z,30.6671,-87.9365,2.385,0.15,1111122 
DISL,ioos:station:DISL:MHPA:1,2009-12-05T23:30:00Z,30.6671,-87.9365,2.554,0.15,1111122 
DISL,ioos:station:DISL:MHPA:1,2009-12-06T00:00:00Z,30.6671,-87.9365,2.737,0.16,1111122 
DISL,ioos:station:DISL:MHPA:1,2009-12-06T00:30:00Z,30.6671,-87.9365,2.896,0.16,1111122 
DISL,ioos:station:DISL:MHPA:1,2009-12-06T01:00:00Z,30.6671,-87.9365,3.049,0.17,1111122 
DISL,ioos:station:DISL:MHPA:1,2009-12-06T01:30:00Z,30.6671,-87.9365,3.189,0.17,1111122 
DISL,ioos:station:DISL:MHPA:1,2009-12-06T02:00:00Z,30.6671,-87.9365,3.307,0.16,1111122 
DISL,ioos:station:DISL:MHPA:1,2009-12-06T02:30:00Z,30.6671,-87.9365,3.368,0.16,1111122 
DISL,ioos:station:DISL:MHPA:1,2009-12-06T03:00:00Z,30.6671,-87.9365,3.485,0.16,1111122 
DISL,ioos:station:DISL:MHPA:1,2009-12-06T03:30:00Z,30.6671,-87.9365,3.56,0.16,1111122 
DISL,ioos:station:DISL:MHPA:1,2009-12-06T04:00:00Z,30.6671,-87.9365,3.657,0.16,1111122 
DISL,ioos:station:DISL:MHPA:1,2009-12-06T04:30:00Z,30.6671,-87.9365,3.694,0.16,1111122 
DISL,ioos:station:DISL:MHPA:1,2009-12-06T05:00:00Z,30.6671,-87.9365,3.824,0.16,1111122 
DISL,ioos:station:DISL:MHPA:1,2009-12-06T05:30:00Z,30.6671,-87.9365,3.866,0.17,1111122 
DISL,ioos:station:DISL:MHPA:1,2009-12-06T06:00:00Z,30.6671,-87.9365,3.934,0.17,1111122 
DISL,ioos:station:DISL:MHPA:1,2009-12-06T06:30:00Z,30.6671,-87.9365,4.059,0.17,1111122 
DISL,ioos:station:DISL:MHPA:1,2009-12-06T07:00:00Z,30.6671,-87.9365,4.074,0.17,1111122 
DISL,ioos:station:DISL:MHPA:1,2009-12-06T07:30:00Z,30.6671,-87.9365,4.107,0.17,1111122 
DISL,ioos:station:DISL:MHPA:1,2009-12-06T08:00:00Z,30.6671,-87.9365,4.09,0.17,1111122 
DISL,ioos:station:DISL:MHPA:1,2009-12-06T08:30:00Z,30.6671,-87.9365,4.015,0.17,1111122 
DISL,ioos:station:DISL:MHPA:1,2009-12-06T09:00:00Z,30.6671,-87.9365,3.872,0.17,1111122 
DISL,ioos:station:DISL:MHPA:1,2009-12-06T09:30:00Z,30.6671,-87.9365,3.727,0.17,1111122 
DISL,ioos:station:DISL:MHPA:1,2009-12-06T10:00:00Z,30.6671,-87.9365,3.673,0.17,1111122 
DISL,ioos:station:DISL:MHPA:1,2009-12-06T10:30:00Z,30.6671,-87.9365,3.623,0.16,1111122 
DISL,ioos:station:DISL:MHPA:1,2009-12-06T11:00:00Z,30.6671,-87.9365,3.521,0.13,1111122 
DISL,ioos:station:DISL:MHPA:1,2009-12-06T11:30:00Z,30.6671,-87.9365,3.472,0.1,1111122 
DISL,ioos:station:DISL:MHPA:1,2009-12-06T12:00:00Z,30.6671,-87.9365,3.382,0.1,1111122 
DISL,ioos:station:DISL:MHPA:1,2009-12-06T12:30:00Z,30.6671,-87.9365,3.265,0.1,1111122 
DISL,ioos:station:DISL:MHPA:1,2009-12-06T13:00:00Z,30.6671,-87.9365,3.147,0.11,1111122 
DISL,ioos:station:DISL:MHPA:1,2009-12-06T13:30:00Z,30.6671,-87.9365,3.051,0.11,1111122 
DISL,ioos:station:DISL:MHPA:1,2009-12-06T14:00:00Z,30.6671,-87.9365,2.919,0.12,1111122 
DISL,ioos:station:DISL:MHPA:1,2009-12-06T14:30:00Z,30.6671,-87.9365,2.822,0.12,1111122 
DISL,ioos:station:DISL:MHPA:1,2009-12-06T15:00:00Z,30.6671,-87.9365,2.707,0.13,1111122 
DISL,ioos:station:DISL:MHPA:1,2009-12-06T15:30:00Z,30.6671,-87.9365,2.59,0.12,1111122 